Weather History for KVTI - November, 2012

Change the Weather History Date:

Monday, November 5, 2012

  Actual Average Record
Temperature  
Mean Temperature 39 °F -  
Max Temperature 49 °F 49 °F 71 °F (2008)
Min Temperature 29 °F 29 °F 3 °F (1951)
Degree Days  
Heating Degree Days 26    
Moisture  
Dew Point 32 °F    
Average Humidity 76    
Maximum Humidity 92    
Minimum Humidity 51    
Precipitation  
Precipitation 0.00 in - - ()
Sea Level Pressure  
Sea Level Pressure 30.14 in    
Wind  
Wind Speed 6 mph (ESE)    
Max Wind Speed 12 mph    
Max Gust Speed 16 mph    
Visibility 7 miles    
Events Rain    
Averages and records for this station are not official NWS values.
T = Trace of Precipitation, MM = Missing Value Source: NWS Daily Summary

Daily Weather History Graph

Daily Weather History Graph

Search for Another Location

Airport or City:

Trip Planner

Search our weather history database for the weather conditions in past years. The results will help you decide how hot, cold, wet, or windy it might be!

Date:

Astronomy

Nov. 05, 2012 Rise Set
Actual Time 6:46 AM CST 4:56 PM CST
Civil Twilight 6:17 AM CST 5:25 PM CST
Nautical Twilight 5:43 AM CST 5:58 PM CST
Astronomical Twilight 5:11 AM CST 6:31 PM CST
Moon 10:34 PM CST (11/5) 12:06 PM CST (11/5)
Length of Visible Light 11h 08m
Length of Day
10h 09m
Waning Gibbous, 62% of the Moon is Illuminated
Nov 5
Waning Gibbous
Nov 6
Last Quarter
Nov 13
New
Nov 20
First Quarter
Nov 28
Full

Hourly Weather History & Observations

Time (CST) Temp. Windchill Dew Point Humidity Pressure Visibility Wind Dir Wind Speed Gust Speed Precip Events Conditions
12:15 AM 39.7 °F 34.3 °F 36.7 °F 89% 30.15 in 4.0 mi SSE 8.1 mph - N/A   Drizzle
12:35 AM 39.7 °F 34.3 °F 36.9 °F 89% 30.14 in 3.0 mi South 8.1 mph - N/A   Drizzle
12:55 AM 39.4 °F 34.5 °F 36.7 °F 90% 30.15 in 4.0 mi SSE 6.9 mph - N/A Rain Light Rain
1:15 AM 39.4 °F 34.5 °F 36.7 °F 90% 30.15 in 4.0 mi SSE 6.9 mph - N/A Rain Light Rain
1:35 AM 39.4 °F 36.1 °F 36.7 °F 90% 30.15 in 4.0 mi SE 4.6 mph - N/A   Drizzle
1:55 AM 39.4 °F 35.2 °F 36.7 °F 90% 30.15 in 3.0 mi SE 5.8 mph - N/A   Drizzle
2:15 AM 39.4 °F 36.1 °F 36.7 °F 90% 30.15 in 4.0 mi SE 4.6 mph - N/A   Drizzle
2:35 AM 39.4 °F 35.2 °F 36.7 °F 90% 30.14 in 4.0 mi SSE 5.8 mph - N/A   Drizzle
2:55 AM 39.4 °F 35.2 °F 36.7 °F 90% 30.14 in 4.0 mi SSE 5.8 mph - N/A   Drizzle
3:15 AM 39.4 °F 35.2 °F 36.7 °F 90% 30.14 in 4.0 mi SE 5.8 mph - N/A   Light Drizzle
3:35 AM 39.4 °F 36.1 °F 36.5 °F 89% 30.14 in 4.0 mi SE 4.6 mph - N/A   Mostly Cloudy
3:55 AM 39.4 °F 36.1 °F 36.5 °F 89% 30.13 in 4.0 mi ESE 4.6 mph - N/A   Scattered Clouds
4:15 AM 39.4 °F 36.1 °F 36.7 °F 90% 30.14 in 4.0 mi ESE 4.6 mph - N/A   Clear
4:35 AM 39.4 °F 37.2 °F 36.7 °F 90% 30.14 in 3.0 mi East 3.5 mph - N/A   Scattered Clouds
4:55 AM 39.4 °F 37.2 °F 36.9 °F 91% 30.14 in 2.5 mi East 3.5 mph - N/A   Scattered Clouds
5:15 AM 39.4 °F 36.1 °F 36.9 °F 91% 30.15 in 3.0 mi ENE 4.6 mph - N/A   Scattered Clouds
5:35 AM 37.2 °F 32.6 °F 34.7 °F 91% 30.15 in 4.0 mi East 5.8 mph - N/A   Scattered Clouds
5:55 AM 36.9 °F 33.1 °F 34.2 °F 90% 30.15 in 3.0 mi East 4.6 mph - N/A   Clear
6:15 AM 36.9 °F 33.1 °F 34.7 °F 92% 30.15 in 3.0 mi East 4.6 mph - N/A   Clear
6:35 AM 36.9 °F 33.1 °F 34.7 °F 92% 30.15 in 4.0 mi East 4.6 mph - N/A   Clear
6:55 AM 36.9 °F 32.2 °F 34.7 °F 92% 30.15 in 4.0 mi East 5.8 mph - N/A   Clear
7:15 AM 36.9 °F 32.2 °F 34.3 °F 91% 30.15 in 3.0 mi East 5.8 mph - N/A   Clear
7:35 AM 36.9 °F 32.2 °F 34.2 °F 90% 30.16 in 4.0 mi East 5.8 mph - N/A   Clear
7:55 AM 39.4 °F 34.5 °F 36.0 °F 88% 30.16 in 4.0 mi East 6.9 mph - N/A   Clear
8:15 AM 39.4 °F 36.1 °F 35.6 °F 86% 30.17 in 5.0 mi East 4.6 mph - N/A   Clear
8:35 AM 39.4 °F 36.1 °F 35.4 °F 86% 30.17 in 5.0 mi East 4.6 mph - N/A   Scattered Clouds
8:55 AM 39.4 °F 34.5 °F 34.3 °F 82% 30.18 in 7.0 mi East 6.9 mph - N/A   Mostly Cloudy
9:15 AM 40.3 °F 35.5 °F 34.5 °F 80% 30.18 in 7.0 mi East 6.9 mph - N/A   Mostly Cloudy
9:35 AM 40.6 °F 36.0 °F 34.2 °F 78% 30.19 in 7.0 mi East 6.9 mph - N/A   Scattered Clouds
9:55 AM 42.8 °F 37.5 °F 34.2 °F 72% 30.19 in 10.0 mi East 9.2 mph - N/A   Scattered Clouds
10:15 AM 43.7 °F 39.1 °F 33.6 °F 68% 30.19 in 10.0 mi SE 8.1 mph - N/A   Scattered Clouds
10:35 AM 46.8 °F - 34.0 °F 61% 30.19 in 10.0 mi SE 11.5 mph - N/A   Clear
10:55 AM 46.4 °F 41.5 °F 33.3 °F 60% 30.19 in 10.0 mi ESE 10.4 mph - N/A   Clear
11:15 AM 46.9 °F - 33.8 °F 60% 30.18 in 10.0 mi ESE 9.2 mph - N/A   Clear
11:35 AM 46.9 °F - 32.2 °F 57% 30.18 in 10.0 mi ESE 11.5 mph - N/A   Clear
11:55 AM 46.9 °F - 32.7 °F 58% 30.17 in 10.0 mi ESE 10.4 mph - N/A   Clear
12:15 PM 49.5 °F - 33.1 °F 53% 30.16 in 10.0 mi SE 9.2 mph - N/A   Scattered Clouds
12:35 PM 47.3 °F - 31.8 °F 55% 30.16 in 10.0 mi ESE 8.1 mph - N/A   Scattered Clouds
12:55 PM 46.9 °F - 31.1 °F 54% 30.16 in 10.0 mi ESE 9.2 mph - N/A   Mostly Cloudy
1:15 PM 49.5 °F - 32.2 °F 51% 30.15 in 10.0 mi SE 11.5 mph 16.1 mph N/A   Mostly Cloudy
1:35 PM 46.9 °F - 31.1 °F 54% 30.15 in 10.0 mi SE 9.2 mph - N/A   Mostly Cloudy
1:55 PM 46.9 °F - 30.0 °F 52% 30.14 in 10.0 mi East 6.9 mph - N/A   Mostly Cloudy
2:15 PM 46.9 °F - 30.9 °F 54% 30.14 in 10.0 mi SE 5.8 mph - N/A   Mostly Cloudy
2:35 PM 46.9 °F - 31.6 °F 55% 30.13 in 10.0 mi ESE 6.9 mph - N/A   Mostly Cloudy
2:55 PM 46.9 °F - 31.1 °F 54% 30.13 in 10.0 mi ESE 5.8 mph - N/A   Mostly Cloudy
3:15 PM 46.9 °F - 30.7 °F 53% 30.13 in 10.0 mi ESE 4.6 mph - N/A   Mostly Cloudy
3:35 PM 46.4 °F 44.3 °F 30.7 °F 54% 30.13 in 10.0 mi East 4.6 mph - N/A   Mostly Cloudy
3:55 PM 45.5 °F 41.8 °F 29.8 °F 54% 30.13 in 10.0 mi ESE 6.9 mph - N/A   Mostly Cloudy
4:15 PM 43.2 °F 40.5 °F 28.8 °F 57% 30.14 in 10.0 mi East 4.6 mph - N/A   Scattered Clouds
4:35 PM 41.9 °F 39.0 °F 28.2 °F 58% 30.14 in 10.0 mi ESE 4.6 mph - N/A   Clear
4:55 PM 41.5 °F 39.6 °F 28.6 °F 60% 30.14 in 10.0 mi ESE 3.5 mph - N/A   Clear
5:15 PM 39.7 °F - 28.6 °F 64% 30.14 in 10.0 mi Calm Calm - N/A   Scattered Clouds
5:35 PM 40.5 °F - 28.4 °F 62% 30.15 in 10.0 mi Calm Calm - N/A   Scattered Clouds
5:55 PM 40.6 °F - 28.2 °F 61% 30.14 in 10.0 mi Calm Calm - N/A   Clear
6:15 PM 39.4 °F - 27.9 °F 63% 30.15 in 10.0 mi Calm Calm - N/A   Clear
6:35 PM 36.9 °F - 28.4 °F 71% 30.15 in 10.0 mi Calm Calm - N/A   Clear
6:55 PM 38.1 °F - 28.6 °F 69% 30.14 in 10.0 mi Calm Calm - N/A   Clear
7:15 PM 34.3 °F 31.4 °F 27.1 °F 75% 30.14 in 10.0 mi NW 3.5 mph - N/A   Scattered Clouds
7:35 PM 34.3 °F - 27.5 °F 76% 30.13 in 10.0 mi Calm Calm - N/A   Scattered Clouds
7:55 PM 35.8 °F - 28.4 °F 75% 30.13 in 10.0 mi Calm Calm - N/A   Clear
8:15 PM 34.3 °F - 28.2 °F 78% 30.12 in 10.0 mi Calm Calm - N/A   Clear
8:35 PM 32.0 °F - 27.0 °F 82% 30.12 in 10.0 mi Calm Calm - N/A   Clear
8:55 PM 33.1 °F 28.7 °F 28.9 °F 85% 30.11 in 10.0 mi SSE 4.6 mph - N/A   Clear
9:15 PM 32.0 °F - 27.9 °F 85% 30.12 in 7.0 mi Calm Calm - N/A   Clear
9:35 PM 30.9 °F - 27.5 °F 87% 30.11 in 7.0 mi Calm Calm - N/A   Clear
9:55 PM 31.6 °F - 27.7 °F 85% 30.10 in 7.0 mi Calm Calm - N/A   Clear
10:15 PM 32.0 °F 28.7 °F 27.7 °F 84% 30.09 in 7.0 mi SSE 3.5 mph - N/A   Clear
10:35 PM 29.8 °F - 26.1 °F 86% 30.10 in 7.0 mi Calm Calm - N/A   Clear
10:55 PM 29.7 °F - 26.6 °F 88% 30.10 in 5.0 mi Calm Calm - N/A   Clear
11:15 PM 30.2 °F - 27.5 °F 90% 30.10 in 7.0 mi Calm Calm - N/A   Clear
11:35 PM 29.7 °F - 26.4 °F 88% 30.10 in 7.0 mi Calm Calm - N/A   Clear
11:55 PM 29.7 °F - 26.4 °F 88% 30.09 in 5.0 mi Calm Calm - N/A   Scattered Clouds